Flag for Canada Weather past 2 weeks in Laval, Quebec, Canada

18 °F

Passing clouds.

Feels Like: 18 °F
Forecast: 15 / 35 °F
Wind: 2 mph from North

Location: Montreal / Mirabel

Current Time: Nov 24, 2015 at 9:30:01 PM

Latest Report: Nov 24, 2015 at 9:00 PM

Visibility: 25 mi

Pressure: 30.50 "Hg

Humidity: 93%

Dew point: 16 °F

Location of LavalLocation

Historic Weather in Laval — Graph


Laval temperature yesterday

Maximum temperature yesterday: 32 °F (at 1:00 PM)
Minimum temperature yesterday: 18 °F (at 7:00 AM)
Average temperature yesterday: 25 °F

Past Weeks' High & Low Weather Summary

High55 °F (Nov 19, 1:00 PM)100% (Nov 10, 3:00 AM)30.62 "Hg (Nov 10, 3:00 AM)
Low18 °F (Nov 23, 7:00 AM)29% (Nov 23, 2:00 PM)29.22 "Hg (Nov 13, 3:00 AM)
Average37 °F77%30.06 "Hg
* Reported Nov 9 8:00 PM — Nov 24 8:00 PM, Laval, Weather by CustomWeather, © 2015

Note: Actual official high and low records may vary slightly from our data, if they occured in-between our weather recording intervals... More about our weather records


Laval weather history for previous 24 hours

Time TempWeatherWind HumidityBarometerVisibility
8:00 PM
Tue, Nov 24
19 °FPassing clouds.3 mph93%30.48 "Hg25 mi
7:00 PM21 °FPassing clouds.3 mph86%30.46 "Hg25 mi
6:00 PM23 °FPartly cloudy.2 mph86%30.44 "Hg25 mi
5:00 PM25 °FPassing clouds.No wind80%30.41 "Hg20 mi
4:00 PM25 °FPartly sunny.No wind80%30.38 "Hg20 mi
3:00 PM25 °FSnow flurries. Mostly cloudy.No wind80%30.37 "Hg20 mi
2:00 PM25 °FSnow flurries. Overcast.2 mph74%30.35 "Hg20 mi
1:00 PM25 °FSnow flurries. More clouds than sun.3 mph74%30.34 "Hg15 mi
12:00 PM25 °FMore clouds than sun.5 mph74%30.34 "Hg15 mi
11:00 AM23 °FSnow flurries. Mostly cloudy.7 mph80%30.34 "Hg6 mi
10:00 AM23 °FSnow flurries. Low clouds.6 mph80%30.34 "Hg6 mi
9:00 AM21 °FSnow flurries. More clouds than sun.5 mph86%30.32 "Hg4 mi
8:00 AM21 °FOvercast.5 mph86%30.31 "Hg15 mi
7:00 AM21 °FLight snow. Overcast.5 mph86%30.28 "Hg10 mi
6:00 AM21 °FLight snow. Overcast.5 mph86%30.26 "Hg4 mi
5:00 AM21 °FLight snow. Overcast.3 mph86%30.24 "Hg4 mi
4:00 AM21 °FLight snow. Overcast.5 mph80%30.22 "Hg15 mi
3:00 AM21 °FMostly cloudy.No wind80%30.20 "Hg25 mi
2:00 AM19 °FOvercast.2 mph79%30.20 "Hg25 mi
1:00 AM21 °FPassing clouds.No wind74%30.19 "Hg25 mi
12:00 AM19 °FPassing clouds.2 mph73%30.18 "Hg25 mi
11:00 PM
Mon, Nov 23
18 °FPassing clouds.3 mph79%30.18 "Hg25 mi
10:00 PM21 °FPassing clouds.3 mph58%30.16 "Hg25 mi
9:00 PM21 °FPassing clouds.5 mph58%30.16 "Hg25 mi
Weather by CustomWeather, © 2015

See weather overviewHow to use our weather pages